Starlink 30940

operational
NORAD ID: 58409 Int'l Des: 2023-180 Owner: SPXS Country: US Constellation: starlink
LEOCIRCULAR

关于 Starlink 30940

正在加载描述...

实时位置

正在加载3D地球...

即将过境

高度历史

Altitude vs Time

uPlot chart will show altitude changes over time

两行轨道根数

1 58409U 23180H 25300.27981175 .00000362 00000-0 23682-4 0 9996
2 58409 43.0010 300.4392 0001534 272.7045 87.3631 15.25916663108930
Epoch: Oct 27, 2025 • Age: 28 hours

当前状态

高度 487.3 km
速度 7.62 km/s
星下点 14.75°N, 106.71°E
发射日期 Nov 22, 2023
运行时间 1.9 years
类型 internet

技术详情

分类 Payload
质量 730.00 kg
干质量 700.00 kg
总质量 730.00 kg
长度 0.30 m
直径 4.10 m
跨度 29.00 m
形状 Box + pan
制造商 SPXS
平台类型 Starlink V2M
阶段状态 In Orbit
所有者/国家 SPXS/US

大型星座

Loading constellations...